Flag for USA

Past Weather in 39°50'56"N, 77°55'16"W, USA — Yesterday and Last 2 Weeks

Now
49 °F

Fog.


Feels Like: 46 °F
Forecast: 71 / 49 °F
Wind: 6 mph from North

Location: Washington County Regional Airport

Current Time: Mar 29, 2020 at 9:14:37 am

Latest Report: Mar 29, 2020 at 7:53 am


Visibility: 0 mi

Pressure: 29.97 "Hg

Humidity: 100%

Dew Point: 49 °F

Location of 39°50'56"N, 77°55'16"WLocation

Past Weather in 39°50'56"N, 77°55'16"W — Graph

°F

39°50'56"N, 77°55'16"W Temperature Yesterday

Maximum temperature yesterday: 58 °F (at 12:53 am)
Minimum temperature yesterday: 50 °F (at 7:53 pm)
Average temperature yesterday: 53 °F

High & Low Weather Summary for the Past Weeks

 TemperatureHumidityPressure
High81 °F (Mar 20, 3:53 pm)100% (Mar 29, 2:53 am)30.63 "Hg (Mar 29, 2:53 am)
Low31 °F (Mar 16, 6:53 am)25% (Mar 14, 2:53 pm)29.81 "Hg (Mar 27, 3:53 am)
Average48 °F74%30.20 "Hg
* Reported Mar 14 7:53 am — Mar 29 7:53 am, 39°50'56"N, 77°55'16"W. Weather by CustomWeather, © 2020

Note: Actual official high and low records may vary slightly from our data, if they occured in-between our weather recording intervals... More about our weather records

39°50'56"N, 77°55'16"W Weather History for the Previous 24 Hours

Scroll right to see more
 ConditionsComfort  
Time TempWeatherWind HumidityBarometerVisibility
7:53 am
Sun, Mar 29
49 °FFog.6 mph100%29.97 "Hg0 mi
7:11 am49 °FFog.5 mph97%29.93 "Hg0 mi
6:53 am49 °FFog.5 mph100%29.95 "Hg1 mi
5:53 am49 °FFog.No wind100%29.93 "Hg0 mi
4:53 am50 °FFog.3 mph96%29.93 "Hg1 mi
4:18 am50 °FFog.No wind96%29.90 "Hg0 mi
4:11 am50 °FFog.5 mph96%29.90 "Hg1 mi
3:37 am50 °FFog.3 mph100%29.91 "Hg2 mi
3:21 am50 °FFog.No wind100%29.93 "Hg2 mi
3:15 am50 °FFog.No wind100%29.93 "Hg1 mi
2:53 am50 °FFog.6 mph100%29.96 "Hg1 mi
2:37 am50 °FFog.5 mph96%29.95 "Hg1 mi
2:01 am50 °FFog.6 mph96%29.96 "Hg1 mi
1:32 am50 °FFog.7 mph96%29.97 "Hg2 mi
1:14 am50 °FFog.3 mph96%29.96 "Hg2 mi
12:53 am50 °FFog.3 mph96%29.97 "Hg3 mi
11:53 pm
Sat, Mar 28
50 °FFog.7 mph96%30.00 "Hg4 mi
10:53 pm50 °FFog.5 mph96%29.98 "Hg3 mi
10:42 pm51 °FFog.5 mph92%29.96 "Hg3 mi
10:11 pm52 °FPassing clouds.5 mph93%29.95 "Hg8 mi
9:53 pm52 °FPartly cloudy.No wind93%29.98 "Hg10 mi
8:53 pm51 °FOvercast.8 mph96%30.00 "Hg8 mi
7:53 pm50 °FFog.9 mph96%30.02 "Hg1 mi
7:38 pm51 °FFog.9 mph92%30.00 "Hg5 mi
6:53 pm54 °FLow clouds.9 mph90%29.98 "Hg10 mi
6:17 pm53 °FFog.5 mph96%29.93 "Hg4 mi
6:05 pm52 °FFog.5 mph97%29.93 "Hg2 mi
5:53 pm51 °FFog.8 mph96%29.95 "Hg2 mi
5:31 pm51 °FFog.9 mph96%29.92 "Hg2 mi
4:53 pm52 °FFog.6 mph93%29.93 "Hg5 mi
3:53 pm53 °FFog.7 mph93%29.92 "Hg5 mi
2:53 pm53 °FFog.7 mph93%29.94 "Hg4 mi
2:18 pm53 °FFog.7 mph93%29.93 "Hg4 mi
2:00 pm53 °FFog.No wind96%29.93 "Hg4 mi
1:04 pm54 °FFog.3 mph93%29.95 "Hg2 mi
12:31 pm52 °FFog.6 mph97%29.97 "Hg2 mi
12:24 pm53 °FLight rain. Fog.8 mph93%29.97 "Hg2 mi
11:53 am55 °FOvercast.No wind90%30.00 "Hg10 mi
10:53 am55 °FLight rain. More clouds than sun.3 mph90%29.98 "Hg10 mi
9:53 am54 °FMostly cloudy.5 mph90%30.00 "Hg10 mi
Weather by CustomWeather, © 2020

See weather overview

Advertising